Location: Falniów
(50.3639°N, 19.9642°E)
Time: 13:42:25
(UTC+00:00)

Cosmos 2082 Rocket - Pass Details

Date: 23 April 2026
Orbit: 831 x 853 km, 71.0° (Epoch: 19 May)

Event Time Altitude Azimuth Distance (km) Brightness Sun altitude
Exits shadow 22:48:15 39° 103° (ESE) 1,254 2.9 -26.8°
Drops below altitude 10° 22:53:19 10° 41° (NE) 2,493 5.3 -26.8°
Sets 22:55:55 0° 34° (NE) 3,432 6.3 -26.7°
